Simultaneous Nadir Overpasses (SNOs) Predictions

Prediction of SNOs between NOAA-19 and METOP-C Satellite Orbit:

Table of predicted SNOs for the next 14.0 days since TLE Epoch: 10/3/2020
Index Date (NOAA-19) Time (NOAA-19) Lat,Lon (NOAA-19) SZA (NOAA-19 ) Date (METOP-C) Time (METOP-C) Lat,Lon (METOP-C) SZA (METOP-C ) Distance(km) Time Diff (sec)
1 10/05/2020 00:28:55 -80.22, 16.76 93.95 10/05/2020 00:30:08 -80.19, 16.83 93.94 2.85 73
2 10/05/2020 01:19:58 80.19,-175.62 86.08 10/05/2020 01:20:47 80.21,-175.63 86.11 2.16 49
3 10/05/2020 02:10:54 -80.19, -8.24 93.91 10/05/2020 02:11:29 -80.21, -8.34 93.88 3.20 35
4 10/05/2020 03:01:59 80.20, 158.72 86.10 10/05/2020 03:02:09 80.20, 158.88 86.12 3.20 10
5 10/05/2020 03:52:55 -80.20, -33.90 93.88 10/05/2020 03:52:51 -80.20, -33.83 93.88 1.40 4
6 10/05/2020 04:43:59 80.19, 133.38 86.14 10/05/2020 04:43:31 80.19, 133.40 86.12 0.81 28
7 10/05/2020 05:34:55 -80.18, -59.23 93.85 10/05/2020 05:34:13 -80.18, -59.31 93.88 1.44 42
8 10/05/2020 06:25:59 80.18, 108.04 86.17 10/05/2020 06:24:53 80.17, 107.92 86.13 2.61 66
9 10/16/2020 01:42:11 -80.23, -1.34 89.71 10/16/2020 01:43:23 -80.22, -1.19 89.68 3.03 72
10 10/16/2020 02:33:12 80.22, 166.02 90.31 10/16/2020 02:34:03 80.20, 165.95 90.30 2.72 51
11 10/16/2020 03:24:11 -80.22, -26.67 89.68 10/16/2020 03:24:45 -80.21, -26.68 89.68 1.42 34
12 10/16/2020 04:15:12 80.21, 140.69 90.34 10/16/2020 04:15:24 80.22, 140.77 90.36 1.67 12
13 10/16/2020 05:06:11 -80.21, -52.01 89.65 10/16/2020 05:06:06 -80.22, -51.85 89.63 3.21 5
14 10/16/2020 05:57:12 80.20, 115.35 90.37 10/16/2020 05:56:46 80.21, 115.29 90.36 1.21 26
15 10/16/2020 06:48:11 -80.20, -77.34 89.62 10/16/2020 06:47:28 -80.21, -77.34 89.62 1.13 43
16 10/16/2020 07:39:12 80.21, 89.68 90.39 10/16/2020 07:38:07 80.19, 89.80 90.36 3.28 65
